Regional Weather Roundup
Issued by NWS

Home | Current Version | Previous Version | Graphics & Text | Print | Product List | Glossary On
Versions: 1 2 3 4 5 6 7 8 9 10 11 12 13 14 15 16 17 18 19 20 21 22 23 24 25 26 27 28 29 30 31 32 33 34 35 36 37 38 39 40 41 42 43 44 45 46 47 48 49 50
000
ASUS45 KBOU 261807
RWRCO

WEATHER ROUNDUP FOR COLORADO
NATIONAL WEATHER SERVICE DENVER/BOULDER CO
1200 PM MDT TUE AUG 26 2014

NOTE: "FAIR" INDICATES FEW OR NO CLOUDS BELOW 12000 FEET WITH NO
SIGNIFICANT WEATHER AND/OR OBSTRUCTIONS TO VISIBILITY.

COZ001>005-013-030-031-261900-
...NORTHWEST COLORADO...

CITY           SKY/WX    TMP DP  RH WIND       PRES   REMARKS
CRAIG          PTSUNNY   62  49  62 CALM      30.30F
HAYDEN         PTSUNNY   63  46  55 CALM      30.32S
MEEKER         PTSUNNY   66  48  52 NE5       30.29F
MOUNT WERNER   NOT AVBL
STEAMBOAT SPGS PTSUNNY   60  50  69 E14       30.34F
WALDEN         PTSUNNY   63  43  48 S5        30.39S
$$

COZ006>008-011-261900-
...WEST CENTRAL VALLEYS...

CITY           SKY/WX    TMP DP  RH WIND       PRES   REMARKS
GRAND JUNCTION CLOUDY    69  56  62 E10       30.18F
MONTROSE       PTSUNNY   79  43  27 NE5       30.24F
EAGLE          MOSUNNY   66  45  45 CALM      30.31F
RIFLE          PTSUNNY   73  49  42 N3        30.22F
DELTA          PTSUNNY   82  43  25 S5        30.21F
NUCLA          PTSUNNY   73  45  35 CALM      30.28F
$$

COZ017>023-064>068-261900-
...SOUTHWEST COLORADO...

CITY           SKY/WX    TMP DP  RH WIND       PRES   REMARKS
DURANGO        CLOUDY    67  49  52 SE9       30.34S
CORTEZ         CLOUDY    79  46  31 S5        30.27S
PAGOSA SPRINGS   N/A    N/A N/A N/A W9        30.41
TELLURIDE      PTSUNNY   64  37  36 CALM      30.44F
WOLF CREEK PAS CLOUDY    48  36  61 SW6       30.66
$$

COZ009-010-012-014-032>034-037-058>063-261900-
...CENTRAL COLORADO...

CITY           SKY/WX    TMP DP  RH WIND       PRES   REMARKS
ASPEN          PTSUNNY   69  40  34 NW8       30.34F
BUENA VISTA    PTSUNNY   64  49  58 SE13      30.42S
COPPER MTN     CLOUDY    54  34  47 S8G16     30.65F
BERTHOUD PASS  PTSUNNY   45  45 100 NW10      30.69F
COTTONWOOD PAS CLOUDY    61  46  59 SE14      30.53F
GUNNISON       PTSUNNY   63  43  48 CALM      30.42F
KREMMLING      PTSUNNY   66  41  39 CALM      30.36F
LEADVILLE      CLOUDY    58  36  43 S9        30.50S
MONARCH PASS   PTSUNNY   50  36  57 W15       30.77R
SALIDA         PTSUNNY   63  53  68 CALM      30.46F
SUNLIGHT       PTSUNNY   59  45  58 CALM      30.57F
WILKERSON PASS NOT AVBL
$$

COZ069>075-261900-
...SAN LUIS VALLEY/SANGRE DE CRISTO MOUNTAINS...

CITY           SKY/WX    TMP DP  RH WIND       PRES   REMARKS
ALAMOSA        MOSUNNY   71  43  36 VRB3      30.36F
LA VETA PASS   NOT AVBL
SAGUACHE       CLOUDY    63  46  55 W3        30.42R
$$

COZ035-036-038>040-261900-
...NORTHERN COLORADO FRONT RANGE...

CITY           SKY/WX    TMP DP  RH WIND       PRES   REMARKS
DENVER INTL AP PTSUNNY   72  58  61 S8        30.22F
DMNS CITY PARK   N/A     74  55  51 SW1       30.21F
AURORA         PTSUNNY   72  57  58 S5        30.24F
FRONT RANGE AP NOT AVBL
ERIE MUNI ARPT MOSUNNY   73  58  60 W5        30.21F
BOULDER MUN AP MOSUNNY   72  55  56 N5        30.22S
CENTENNIAL     PTSUNNY   70  55  59 SE6       30.25F
BROOMFIELD     PTSUNNY   73  55  53 VRB5      30.24F
FORT COLLINS   PTSUNNY   72  57  60 S5        30.23F
LONGMONT       PTSUNNY   77  58  51 E5        30.22F
$$

COZ041-046-047-076>085-087-088-261900-
...PIKES PEAK/PALMER DIVIDE AND SOUTHERN FOOTHILLS...

CITY           SKY/WX    TMP DP  RH WIND       PRES   REMARKS
COLO. SPRINGS  PTSUNNY   64  55  72 SW7       30.32F
A. F. ACADEMY  PTSUNNY   65  55  70 S8        30.32F
ELLICOTT       PTSUNNY   65  56  72 VRB6      30.30F
FALCON         CLOUDY    63  54  74 S3        30.36F
FORT CARSON    CLOUDY    65  56  72 SE8       30.30S
LIMON          PTSUNNY   67  58  72 S8        30.25F
MONUMENT HILL  PTSUNNY   68  52  56 S9        30.33F
TRINIDAD       MOSUNNY   74  55  51 CALM      30.26F
$$

COZ042>045-048>051-090-091-261900-
...NORTHEAST COLORADO...

CITY           SKY/WX    TMP DP  RH WIND       PRES   REMARKS
GREELEY ARPT   PTSUNNY   75  55  50 SW7       30.21F
AKRON          PTSUNNY   73  58  59 S10       30.22S
BURLINGTON     PTSUNNY   74  60  61 SE9G18    30.21F
WRAY             N/A     76  62  60 SE8G16    30.19S
STERLING       PTSUNNY   77  63  61 S5        30.17F
HOLYOKE        MOSUNNY   73  63  68 E13       30.19F
FORT MORGAN    PTSUNNY   74  58  55 SE9       30.21F
$$

COZ086-089-092>099-261900-
...SOUTHEAST COLORADO...

CITY           SKY/WX    TMP DP  RH WIND       PRES   REMARKS
PUEBLO         CLOUDY    68  56  65 VRB5      30.23F
LA JUNTA       PTSUNNY   72  58  61 CALM      30.21F
LAMAR          MOSUNNY   82  57  42 VRB3      30.16F
SPRINGFIELD      N/A     84  55  36 S12       30.19S
$$



USA.gov is the U.S. government's official web portal to all federal, state and local government web resources and services.